Regional Weather Roundup
Issued by NWS

Home | Current Version | Previous Version | Graphics & Text | Print | Product List | Glossary On
Versions: 1 2 3 4 5 6 7 8 9 10 11 12 13 14 15 16 17 18 19 20 21 22 23 24 25 26 27
000
ASUS45 KGTF 270810
RWRMT
MONTANA HOURLY WEATHER ROUNDUP
NATIONAL WEATHER SERVICE GREAT FALLS MT
200 AM MDT MON APR 27 2015

NOTE: "FAIR" INDICATES FEW OR NO CLOUDS BELOW 12000 FEET WITH NO
SIGNIFICANT WEATHER AND/OR OBSTRUCTIONS TO VISIBILITY.

MTZ001>007-043-270900-
WEST OF THE DIVIDE

CITY           SKY/WX    TMP DP  RH WIND       PRES   REMARKS
KALISPELL      PTSUNNY   34  34 100 CALM      30.26R
MISSOULA       PTCLDY    36  35  96 NW3       30.31R
BUTTE          MOCLDY    30  27  88 CALM      30.27R
DEER LODGE       N/A     32  28  86 CALM      30.32R
EUREKA           N/A     37  30  75 SE3       30.25R
HAMILTON         N/A     39  36  87 NW2       30.29S
LIBBY            N/A     28  25  86 CALM      30.28R
$$

MTZ008-052>055-270900-
SOUTHWEST MONTANA

CITY           SKY/WX    TMP DP  RH WIND       PRES   REMARKS
BOZEMAN        CLOUDY    36  33  89 CALM      30.27S
DILLON         PTCLDY    34  31  88 S3        30.25S
$$

MTZ009-010-012-014-046-048-049-054-270900-
EAST SLOPES AND CENTRAL MONTANA

CITY           SKY/WX    TMP DP  RH WIND       PRES   REMARKS
CUT BANK       CLEAR     31  26  82 CALM      30.19S
GREAT FALLS    CLEAR     30  27  88 S9        30.22S WCI  22
MALMSTROM AFB  CLEAR     29  28  95 S7        30.24S WCI  22
HELENA         CLEAR     31  28  89 NW3       30.27R
$$

MTZ011-013-016-021-045-047-050-051-270900-
NORTH CENTRAL MONTANA

CITY           SKY/WX    TMP DP  RH WIND       PRES   REMARKS
HAVRE          CLEAR     28  25  88 SW6       30.24S WCI  22
LEWISTOWN      CLOUDY    32  30  92 E6        30.23S FOG     WCI  26
CHINOOK          N/A     28  25  86 CALM      30.25S
FORT BENTON      N/A     30  28  93 CALM      30.26S
$$

MTZ017>020-022>042-056>058-061-062-270900-
EASTERN PLAINS

CITY           SKY/WX    TMP DP  RH WIND       PRES   REMARKS
BAKER          LGT RAIN  37  35  92 NW10      30.24R WCI  30
BILLINGS       CLOUDY    37  33  85 SE5       30.27S
GLASGOW        LGT RAIN  40  36  86 W7        30.26R
JORDAN           N/A     38  36  92 W5        30.26S
LIVINGSTON     CLOUDY    37  34  89 NW5       30.25S
MILES CITY     CLOUDY    37  36  96 W9        30.27S WCI  30
SIDNEY         CLOUDY    41  36  81 NW10      30.26R
WOLF POINT     CLOUDY    42  38  85 CALM      30.26S
BIG TIMBER       N/A     36  34  93 CALM      30.26S
FORSYTH          N/A     37  37 100 W5        30.28S
PLENTYWOOD       N/A     39  37  93 CALM      30.24S
POPLAR           N/A     41  39  93 SW3       30.26S
$$

REGIONAL REPORTS...DAKOTAS

CITY           SKY/WX    TMP DP  RH WIND       PRES   REMARKS
WILLISTON      LGT RAIN  42  38  85 N7        30.24S
MINOT          LGT RAIN  42  38  85 NW14      30.20R
DICKINSON      LGT RAIN  42  40  92 NW8       30.19R FOG
BEACH          LGT RAIN  37  37 100 NW13      30.24R WCI  29
CROSBY         CLOUDY    37  37 100 NW3       30.25R
WATFORD CITY   LGT RAIN  39  39 100 N9        30.22R
BISMARCK       CLOUDY    42  41  96 CALM      30.18S FOG
GRAND FORKS    CLEAR     44  26  49 S3        30.16S
FARGO          CLEAR     41  26  55 S8        30.17R
BUFFALO SD       N/A     43  42  97 N13       30.13R
RAPID CITY     MOCLDY    41  39  93 N7        30.16S
$$

REGIONAL REPORTS...WYOMING/IDAHO/WASHINGTON

CITY           SKY/WX    TMP DP  RH WIND       PRES   REMARKS
GILLETTE       CLOUDY    34  33  96 N10       30.22S WCI  26
SHERIDAN       CLOUDY    35  33  92 W5        30.25F
BUFFALO WY     CLOUDY    34  32  92 N10       30.23R FOG     WCI  26
CODY           CLOUDY    34  34 100 NE7       30.23S WCI  28
YELLOWSTONE LA   N/A     30  27  88 CALM      30.23R
IDAHO FALLS    CLEAR     35  30  82 N6        30.21R WCI  30
SALMON         CLOUDY    39  34  81 CALM      30.27S
BOISE          CLEAR     46  26  45 W6        30.23R
SPOKANE        MOCLDY    43  25  49 S3        30.26R
$$

REGIONAL REPORTS...ALBERTA

CITY           SKY/WX    TMP DP  RH WIND       PRES   REMARKS
EDMONTON       CLEAR     37  28  70 S8        30.05F WCI  31
CALGARY        CLEAR     36  25  64 S9        30.08S WCI  29
LETHBRIDGE     CLEAR     39  30  70 SW13      30.16R WCI  32
MEDICINE HAT   CLEAR     34  28  80 S2        30.19S
$$

REGIONAL REPORTS...SASKATCHEWAN

CITY           SKY/WX    TMP DP  RH WIND       PRES   REMARKS
SWIFT CURRENT  CLEAR     34  30  86 SW7       30.20S WCI  28
REGINA         CLOUDY    36  34  93 W2        30.23R
SASKATOON      PTCLDY    27  27 100 S3        30.23S
$$



USA.gov is the U.S. government's official web portal to all federal, state and local government web resources and services.